Weather History for KDVN - May, 2013

Change the Weather History Date:

Thursday, May 9, 2013

  Actual Average Record
Temperature  
Mean Temperature 65 °F 58 °F  
Max Temperature 71 °F 70 °F 91 °F (1979)
Min Temperature 59 °F 47 °F 31 °F (1966)
Degree Days  
Heating Degree Days 0 8  
Month to date heating degree days 50 78  
Since 1 July heating degree days 6434 6382  
Cooling Degree Days 0 1  
Month to date cooling degree days 4 8  
Year to date cooling degree days 14 14  
Growing Degree Days 14 (Base 50)    
Moisture  
Dew Point 59 °F    
Average Humidity 82    
Maximum Humidity 97    
Minimum Humidity 66    
Precipitation  
Precipitation 0.48 in 0.13 in 1.49 in (1955)
Month to date precipitation 2.31 1.12  
Year to date precipitation 14.76 9.68  
Snow  
Snow 0.00 in - - ()
Month to date snowfall 0.0  
Since 1 July snowfall 27.1  
Snow Depth 0.00 in    
Sea Level Pressure  
Sea Level Pressure 29.87 in    
Wind  
Wind Speed 7 mph (SSE)    
Max Wind Speed 18 mph    
Max Gust Speed 30 mph    
Visibility 6 miles    
Events Rain    
T = Trace of Precipitation, MM = Missing Value Source: NWS Daily Summary

Daily Weather History Graph

Daily Weather History Graph

Search for Another Location

Airport or City:

Trip Planner

Search our weather history database for the weather conditions in past years. The results will help you decide how hot, cold, wet, or windy it might be!

Date:

Astronomy

May. 09, 2013 Rise Set
Actual Time 5:49 AM CDT 8:09 PM CDT
Civil Twilight 5:17 AM CDT 8:40 PM CDT
Nautical Twilight 4:39 AM CDT 9:18 PM CDT
Astronomical Twilight 3:57 AM CDT 10:01 PM CDT
Moon 5:34 AM CDT (5/9) 8:04 PM CDT (5/9)
Length of Visible Light 15h 22m
Length of Day
14h 20m
Waning Crescent, 0% of the Moon is Illuminated
May 9
Waning Crescent
May 9
New
May 17
First Quarter
May 24
Full
May 31
Last Quarter

Hourly Weather History & Observations

Time (CDT) Temp. Dew Point Humidity Pressure Visibility Wind Dir Wind Speed Gust Speed Precip Events Conditions
12:52 AM 62.1 °F 57.0 °F 84% 29.96 in 9.0 mi Calm Calm - 0.00 in   Overcast
2:52 AM 62.1 °F 55.9 °F 80% 29.94 in 10.0 mi East 8.1 mph - N/A   Overcast
3:52 AM 61.0 °F 57.0 °F 87% 29.95 in 8.0 mi ESE 4.6 mph - N/A   Overcast
4:52 AM 61.0 °F 57.0 °F 87% 29.93 in 7.0 mi SE 5.8 mph - 0.00 in   Overcast
5:52 AM 61.0 °F 57.9 °F 90% 29.95 in 4.0 mi South 3.5 mph - 0.01 in Rain Light Rain
6:52 AM 61.0 °F 57.0 °F 87% 29.95 in 6.0 mi SSE 4.6 mph - 0.00 in   Overcast
7:52 AM 61.0 °F 57.0 °F 87% 29.95 in 6.0 mi SE 8.1 mph - N/A   Partly Cloudy
8:26 AM 60.8 °F 57.2 °F 88% 29.92 in 2.5 mi ENE 9.2 mph - 0.04 in Rain Rain
8:38 AM 60.8 °F 57.2 °F 88% 29.92 in 5.0 mi East 3.5 mph - 0.04 in Rain Light Rain
8:52 AM 62.1 °F 57.9 °F 86% 29.92 in 6.0 mi ESE 5.8 mph - 0.04 in   Scattered Clouds
9:52 AM 64.0 °F 59.0 °F 84% 29.93 in 7.0 mi Calm Calm - N/A   Scattered Clouds
10:52 AM 66.9 °F 59.0 °F 76% 29.93 in 10.0 mi South 4.6 mph - 0.00 in   Scattered Clouds
11:52 AM 69.1 °F 59.0 °F 70% 29.91 in 10.0 mi Calm Calm - N/A   Mostly Cloudy
12:26 PM 69.8 °F 59.0 °F 68% 29.91 in 10.0 mi SE 4.6 mph - N/A   Mostly Cloudy
1:18 PM 69.8 °F 57.2 °F 64% 29.89 in 10.0 mi SSE 12.7 mph 18.4 mph N/A   Overcast
1:52 PM 68.0 °F 60.1 °F 76% 29.87 in 10.0 mi SSE 11.5 mph - N/A   Mostly Cloudy
3:08 PM 62.6 °F 60.8 °F 94% 29.86 in 1.8 mi South 11.5 mph - 0.04 in Rain Heavy Rain
3:40 PM 64.4 °F 60.8 °F 88% 29.85 in 2.0 mi SE 10.4 mph - 0.12 in Rain Rain
3:50 PM 64.4 °F 62.6 °F 94% 29.85 in 4.0 mi SE 9.2 mph - 0.12 in Rain Light Rain
3:52 PM 64.0 °F 62.1 °F 93% 29.84 in 5.0 mi SE 9.2 mph - 0.12 in Rain Light Rain
4:14 PM 64.4 °F 62.6 °F 94% 29.85 in 5.0 mi SSE 9.2 mph - 0.01 in   Overcast
4:52 PM 63.0 °F 61.0 °F 93% 29.83 in 7.0 mi SSE 10.4 mph - 0.01 in Rain Light Rain
5:47 PM 62.6 °F 60.8 °F 94% 29.83 in 7.0 mi South 9.2 mph - 0.01 in   Overcast
5:52 PM 63.0 °F 60.1 °F 90% 29.82 in 4.0 mi SSE 9.2 mph - 0.02 in Rain Light Rain
6:01 PM 62.6 °F 60.8 °F 94% 29.82 in 2.0 mi SSE 10.4 mph - 0.04 in Rain Rain
6:11 PM 62.6 °F 60.8 °F 94% 29.82 in 1.8 mi SSE 10.4 mph - 0.08 in Rain Rain
6:28 PM 62.6 °F 60.8 °F 94% 29.82 in 1.8 mi SSE 9.2 mph - 0.14 in Rain Rain
6:32 PM 62.6 °F 60.8 °F 94% 29.82 in 2.0 mi SSE 10.4 mph - 0.15 in Rain Rain
7:31 PM 62.6 °F 60.8 °F 94% 29.81 in 3.0 mi South 8.1 mph - 0.04 in Rain Light Rain
7:52 PM 62.1 °F 59.0 °F 90% 29.81 in 8.0 mi South 13.8 mph - 0.04 in Rain Light Rain
8:02 PM 60.8 °F 57.2 °F 88% 29.82 in 10.0 mi South 8.1 mph - 0.01 in Rain Light Rain
9:18 PM 60.8 °F 57.2 °F 88% 29.82 in 10.0 mi WSW 5.8 mph - N/A   Overcast
9:27 PM 60.8 °F 57.2 °F 88% 29.81 in 8.0 mi SW 5.8 mph - N/A   Overcast
9:48 PM 60.8 °F 59.0 °F 94% 29.82 in 5.0 mi WSW 4.6 mph - N/A   Mostly Cloudy
9:52 PM 60.1 °F 59.0 °F 96% 29.82 in 5.0 mi SW 4.6 mph - N/A   Mostly Cloudy
10:12 PM 60.8 °F 59.0 °F 94% 29.81 in 5.0 mi SW 5.8 mph - N/A   Mostly Cloudy
10:52 PM 60.1 °F 59.0 °F 96% 29.81 in 4.0 mi SW 6.9 mph - N/A   Mostly Cloudy
11:14 PM 60.8 °F 59.0 °F 94% 29.82 in 2.5 mi WSW 6.9 mph - 0.01 in   Mostly Cloudy
11:26 PM 60.8 °F 59.0 °F 94% 29.82 in 3.0 mi West 8.1 mph - 0.01 in   Mostly Cloudy